Time,TemperatureF,DewpointF,PressureIn,WindDirection,WindDirectionDegrees,WindSpeedMPH,WindSpeedGustMPH,Humidity,HourlyPrecipIn,Conditions,Clouds,dailyrainin,SolarRadiationWatts/m^2,SoftwareType,DateUTC
2013-02-22 00:00:00,39.3,33.3,30.22,SSW,201,0.0,9.0,79,0.00,,,0.00,0,Wunderground v.1.15,2013-02-22 05:00:00,
2013-02-22 00:30:00,39.3,34.3,30.22,SSW,201,0.0,9.0,82,0.00,,,0.00,0,Wunderground v.1.15,2013-02-22 05:30:00,
2013-02-22 01:00:00,40.4,35.0,30.21,SSW,201,0.0,9.0,81,0.00,,,0.00,0,Wunderground v.1.15,2013-02-22 06:00:00,
2013-02-22 01:30:00,40.6,35.2,30.23,SSW,201,0.0,9.0,81,0.00,,,0.00,0,Wunderground v.1.15,2013-02-22 06:30:00,
2013-02-22 02:00:00,41.0,34.7,30.25,SSE,150,0.0,9.0,78,0.00,,,0.00,0,Wunderground v.1.15,2013-02-22 07:00:00,
2013-02-22 02:30:00,41.0,33.7,30.24,South,186,1.0,1.0,75,0.00,,,0.00,0,Wunderground v.1.15,2013-02-22 07:30:00,
2013-02-22 03:00:00,39.8,33.2,30.25,South,178,0.0,9.0,77,0.00,,,0.00,0,Wunderground v.1.15,2013-02-22 08:00:00,
2013-02-22 03:30:00,39.5,33.5,30.26,SSE,166,0.0,9.0,79,0.00,,,0.00,0,Wunderground v.1.15,2013-02-22 08:30:00,
2013-02-22 04:00:00,40.3,31.3,30.27,ESE,107,1.0,9.0,70,0.00,,,0.00,0,Wunderground v.1.15,2013-02-22 09:00:00,
2013-02-22 04:30:00,40.5,31.8,30.28,ESE,113,0.0,9.0,71,0.00,,,0.00,0,Wunderground v.1.15,2013-02-22 09:30:00,
2013-02-22 05:00:00,40.0,31.4,30.28,SSE,159,1.0,9.0,71,0.00,,,0.00,0,Wunderground v.1.15,2013-02-22 10:00:00,
2013-02-22 05:30:00,39.8,30.8,30.27,SE,134,0.0,9.0,70,0.00,,,0.00,0,Wunderground v.1.15,2013-02-22 10:30:00,
2013-02-22 06:00:00,39.5,30.9,30.29,SSE,153,0.0,9.0,71,0.00,,,0.00,0,Wunderground v.1.15,2013-02-22 11:00:00,
2013-02-22 06:30:00,38.8,30.2,30.28,SE,138,0.0,9.0,71,0.00,,,0.00,0,Wunderground v.1.15,2013-02-22 11:30:00,
2013-02-22 07:00:00,38.9,29.9,30.27,SSW,206,1.0,1.0,70,0.00,,,0.00,5,Wunderground v.1.15,2013-02-22 12:00:00,
2013-02-22 07:30:00,39.4,31.1,30.27,West,264,2.0,2.0,72,0.00,,,0.00,26,Wunderground v.1.15,2013-02-22 12:30:00,
2013-02-22 08:00:00,39.6,31.0,30.26,West,274,1.0,1.0,71,0.00,,,0.00,49,Wunderground v.1.15,2013-02-22 13:00:00,
2013-02-22 08:30:00,39.7,33.7,30.29,SW,229,0.0,9.0,79,0.00,,,0.00,44,Wunderground v.1.15,2013-02-22 13:30:00,
2013-02-22 09:00:00,40.3,33.7,30.27,SW,229,0.0,9.0,77,0.00,,,0.00,90,Wunderground v.1.15,2013-02-22 14:00:00,
2013-02-22 09:30:00,41.2,33.9,30.27,SW,234,1.0,1.0,75,0.00,,,0.00,183,Wunderground v.1.15,2013-02-22 14:30:00,
2013-02-22 10:00:00,42.5,34.5,30.27,East,92,1.0,9.0,73,0.00,,,0.00,255,Wunderground v.1.15,2013-02-22 15:00:00,
2013-02-22 10:30:00,45.0,36.2,30.28,SE,144,1.0,9.0,71,0.00,,,0.00,197,Wunderground v.1.15,2013-02-22 15:30:00,
2013-02-22 11:00:00,44.8,37.4,30.25,SSE,155,1.0,9.0,75,0.00,,,0.00,304,Wunderground v.1.15,2013-02-22 16:00:00,
2013-02-22 11:30:00,45.1,37.0,30.26,West,277,2.0,2.0,73,0.00,,,0.00,193,Wunderground v.1.15,2013-02-22 16:30:00,
2013-02-22 12:00:00,45.9,38.4,30.26,West,275,0.0,9.0,75,0.00,,,0.00,120,Wunderground v.1.15,2013-02-22 17:00:00,
2013-02-22 12:30:00,46.1,39.3,30.23,SSW,212,0.0,9.0,77,0.00,,,0.00,137,Wunderground v.1.15,2013-02-22 17:30:00,
2013-02-22 13:00:00,46.2,39.4,30.23,West,268,0.0,9.0,77,0.00,,,0.00,70,Wunderground v.1.15,2013-02-22 18:00:00,
2013-02-22 13:30:00,48.2,39.9,30.20,SSW,211,1.0,1.0,73,0.00,,,0.00,121,Wunderground v.1.15,2013-02-22 18:30:00,
2013-02-22 14:00:00,48.0,39.8,30.19,SW,227,0.0,9.0,73,0.00,,,0.00,123,Wunderground v.1.15,2013-02-22 19:00:00,
2013-02-22 14:30:00,49.0,40.0,30.17,SSW,205,0.0,9.0,71,0.00,,,0.00,163,Wunderground v.1.15,2013-02-22 19:30:00,
2013-02-22 15:00:00,48.6,41.0,30.16,SE,140,0.0,9.0,75,0.00,,,0.00,54,Wunderground v.1.15,2013-02-22 20:00:00,
2013-02-22 15:30:00,48.2,41.3,30.15,SSW,202,0.0,9.0,77,0.00,,,0.00,51,Wunderground v.1.15,2013-02-22 20:30:00,
2013-02-22 16:00:00,48.7,42.1,30.15,SSW,209,0.0,9.0,78,0.00,,,0.00,65,Wunderground v.1.15,2013-02-22 21:00:00,
2013-02-22 16:30:00,48.9,42.7,30.14,SW,228,0.0,9.0,79,0.00,,,0.00,30,Wunderground v.1.15,2013-02-22 21:30:00,
2013-02-22 17:00:00,48.8,42.6,30.14,SW,219,0.0,9.0,79,0.00,,,0.00,12,Wunderground v.1.15,2013-02-22 22:00:00,
2013-02-22 17:30:00,47.7,41.2,30.15,SSW,202,1.0,1.0,78,0.00,,,0.00,5,Wunderground v.1.15,2013-02-22 22:30:00,
2013-02-22 18:00:00,47.2,41.0,30.14,SSW,197,0.0,9.0,79,0.00,,,0.00,0,Wunderground v.1.15,2013-02-22 23:00:00,
2013-02-22 18:30:00,46.7,40.5,30.14,South,186,1.0,1.0,79,0.00,,,0.00,0,Wunderground v.1.15,2013-02-22 23:30:00,
2013-02-22 19:00:00,46.3,40.8,30.14,ESE,122,0.0,9.0,81,0.00,,,0.00,0,Wunderground v.1.15,2013-02-23 00:00:00,
2013-02-22 19:30:00,45.4,41.8,30.14,SE,144,0.0,9.0,87,0.00,,,0.00,0,Wunderground v.1.15,2013-02-23 00:30:00,
2013-02-22 20:00:00,44.5,41.2,30.14,SSE,154,0.0,9.0,88,0.00,,,0.00,0,Wunderground v.1.15,2013-02-23 01:00:00,
2013-02-22 20:30:00,44.1,41.6,30.14,South,170,0.0,9.0,91,0.00,,,0.00,0,Wunderground v.1.15,2013-02-23 01:30:00,
2013-02-22 21:00:00,43.8,41.6,30.14,South,178,0.0,9.0,92,0.00,,,0.01,0,Wunderground v.1.15,2013-02-23 02:00:00,
2013-02-22 21:30:00,44.1,42.2,30.10,South,178,0.0,9.0,93,0.00,,,0.01,0,Wunderground v.1.15,2013-02-23 02:30:00,
2013-02-22 22:00:00,44.4,42.5,30.10,SSW,200,0.0,9.0,93,0.00,,,0.01,0,Wunderground v.1.15,2013-02-23 03:00:00,
2013-02-22 22:30:00,44.8,43.2,30.08,WSW,250,0.0,9.0,94,0.00,,,0.01,0,Wunderground v.1.15,2013-02-23 03:30:00,
2013-02-22 23:00:00,45.4,43.8,30.08,WSW,250,0.0,9.0,94,0.00,,,0.01,0,Wunderground v.1.15,2013-02-23 04:00:00,
2013-02-22 23:30:00,45.8,44.2,30.06,WSW,250,0.0,9.0,94,0.00,,,0.01,0,Wunderground v.1.15,2013-02-23 04:30:00,